When you browse on this site, cookies collect data to enhance your experience and personalize the content and advertising you see.
Visit our Privacy Policy to learn more. By continuing to use the site, you agree to this use of cookies and data.
  • In Lithuania
  • List of Countries
  • For 7 days
  • Water Temperature
  • Satellite Maps
  • Weather Map
  • Weather Widgets
  • user-avatar
    Login

    Hourly Weather My Tho

    Today, 21 November, Wednesday

    Time Temperature Precipitation Wind Pressure Humidity
    00:00 +27°C° 0 mm 2 mps 758 mmHg 88%
    01:00 +27°C° 0 mm 2 mps 758 mmHg 88%
    02:00 +27°C° 0 mm 2 mps 758 mmHg 88%
    03:00 +27°C° 0 mm 2 mps 758 mmHg 88%
    04:00 +26°C° 0 mm 2 mps 757 mmHg 88%
    05:00 +27°C° 0 mm 2 mps 758 mmHg 86%
    06:00 +27°C° 0 mm 2 mps 758 mmHg 85%
    07:00 +28°C° 0 mm 2 mps 758 mmHg 82%
    08:00 +29°C° 0 mm 2 mps 758 mmHg 75%
    09:00 +31°C° 0 mm 3 mps 758 mmHg 68%
    10:00 +34°C° 0 mm 3 mps 758 mmHg 61%
    11:00 +34°C° 0 mm 3 mps 758 mmHg 58%
    12:00 +35°C° 0 mm 2 mps 757 mmHg 56%
    13:00 +35°C° 0 mm 2 mps 757 mmHg 54%
    14:00 +35°C° 0 mm 2 mps 756 mmHg 55%
    15:00 +35°C° 0 mm 2 mps 756 mmHg 57%
    16:00 +34°C° 0 mm 2 mps 756 mmHg 58%
    17:00 +32°C° 0 mm 2 mps 756 mmHg 65%
    18:00 +30°C° 0 mm 2 mps 756 mmHg 71%
    19:00 +29°C° 0 mm 2 mps 757 mmHg 77%
    20:00 +28°C° 0 mm 2 mps 757 mmHg 81%
    21:00 +28°C° 0 mm 2 mps 758 mmHg 84%
    22:00 +27°C° 0 mm 2 mps 758 mmHg 87%
    23:00 +27°C° 0 mm 2 mps 758 mmHg 88%

    Tomorrow, 22 November, Thursday

    Time Temperature Precipitation Wind Pressure Humidity
    00:00 +27°C° 0 mm 2 mps 758 mmHg 89%
    01:00 +27°C° 0 mm 2 mps 758 mmHg 91%
    02:00 +27°C° 0 mm 1 mps 758 mmHg 91%
    03:00 +26°C° 0 mm 1 mps 758 mmHg 92%
    04:00 +26°C° 0 mm 1 mps 757 mmHg 93%
    05:00 +27°C° 0 mm 1 mps 758 mmHg 92%
    06:00 +27°C° 0 mm 1 mps 758 mmHg 91%
    07:00 +27°C° 0 mm 1 mps 758 mmHg 89%
    08:00 +29°C° 0 mm 1 mps 758 mmHg 81%
    09:00 +30°C° 0 mm 2 mps 758 mmHg 72%
    10:00 +32°C° 0 mm 2 mps 759 mmHg 64%
    11:00 +34°C° 0 mm 2 mps 758 mmHg 58%
    12:00 +34°C° 0 mm 1 mps 757 mmHg 52%
    13:00 +36°C° 0 mm 1 mps 757 mmHg 47%
    14:00 +35°C° 0 mm 1 mps 756 mmHg 48%
    15:00 +35°C° 0 mm 1 mps 756 mmHg 48%
    16:00 +34°C° 0 mm 1 mps 755 mmHg 49%
    17:00 +33°C° 0 mm 1 mps 756 mmHg 56%
    18:00 +31°C° 0 mm 2 mps 756 mmHg 62%
    19:00 +29°C° 0 mm 2 mps 757 mmHg 69%
    20:00 +29°C° 0 mm 2 mps 757 mmHg 72%
    21:00 +28°C° 0 mm 2 mps 758 mmHg 75%
    22:00 +28°C° 0 mm 1 mps 758 mmHg 78%
    23:00 +28°C° 0 mm 1 mps 758 mmHg 79%

    Day after tomorrow, 23 November, Friday

    Time Temperature Precipitation Wind Pressure Humidity
    00:00 +27°C° 0 mm 1 mps 758 mmHg 80%
    01:00 +27°C° 0 mm 1 mps 758 mmHg 81%
    02:00 +27°C° 0 mm 1 mps 757 mmHg 82%
    03:00 +27°C° 0 mm 1 mps 757 mmHg 82%
    04:00 +27°C° 0 mm 1 mps 757 mmHg 83%
    05:00 +27°C° 0 mm 1 mps 757 mmHg 82%
    06:00 +27°C° 0 mm 2 mps 757 mmHg 82%
    07:00 +27°C° 0 mm 2 mps 758 mmHg 81%
    08:00 +29°C° 0 mm 2 mps 758 mmHg 73%
    09:00 +31°C° 0 mm 3 mps 758 mmHg 65%
    10:00 +33°C° 0 mm 3 mps 759 mmHg 58%
    11:00 +34°C° 0 mm 3 mps 758 mmHg 54%
    12:00 +35°C° 0 mm 3 mps 757 mmHg 51%
    13:00 +36°C° 0 mm 3 mps 756 mmHg 48%
    14:00 +35°C° 0 mm 3 mps 756 mmHg 50%
    15:00 +35°C° 0 mm 2 mps 755 mmHg 53%
    16:00 +35°C° 0 mm 2 mps 755 mmHg 55%
    17:00 +34°C° 0 mm 2 mps 756 mmHg 57%
    18:00 +32°C° 0 mm 2 mps 756 mmHg 60%
    19:00 +30°C° 0 mm 2 mps 757 mmHg 62%
    20:00 +30°C° 0 mm 2 mps 757 mmHg 63%
    21:00 +30°C° 0 mm 2 mps 758 mmHg 65%
    22:00 +29°C° 0 mm 3 mps 758 mmHg 67%
    23:00 +29°C° 0 mm 3 mps 757 mmHg 67%

    24 November, Saturday

    Time Temperature Precipitation Wind Pressure Humidity
    00:00 +28°C° 0 mm 3 mps 757 mmHg 67%
    01:00 +28°C° 0 mm 3 mps 757 mmHg 68%
    02:00 +28°C° 0 mm 3 mps 756 mmHg 68%
    03:00 +28°C° 0 mm 3 mps 756 mmHg 69%
    04:00 +27°C° 0 mm 3 mps 756 mmHg 69%
    05:00 +27°C° 0 mm 4 mps 756 mmHg 70%
    06:00 +27°C° 0 mm 4 mps 756 mmHg 71%
    07:00 +27°C° 0 mm 4 mps 756 mmHg 72%
    08:00 +28°C° 0.1 mm 4 mps 757 mmHg 70%
    09:00 +29°C° 0.1 mm 5 mps 757 mmHg 67%
    10:00 +29°C° 0.1 mm 5 mps 757 mmHg 65%
    11:00 +30°C° 0.2 mm 5 mps 756 mmHg 66%
    12:00 +30°C° 0.2 mm 5 mps 755 mmHg 67%
    13:00 +30°C° 0.2 mm 5 mps 754 mmHg 68%
    14:00 +29°C° 0.6 mm 4 mps 754 mmHg 71%
    15:00 +29°C° 0.6 mm 4 mps 753 mmHg 74%
    16:00 +29°C° 0.6 mm 3 mps 753 mmHg 77%
    17:00 +28°C° 0.5 mm 3 mps 753 mmHg 79%
    18:00 +28°C° 0.5 mm 4 mps 754 mmHg 81%
    19:00 +27°C° 0.5 mm 4 mps 754 mmHg 83%
    20:00 +27°C° 0.6 mm 5 mps 754 mmHg 84%
    21:00 +27°C° 0.6 mm 5 mps 755 mmHg 85%
    22:00 +27°C° 0.6 mm 6 mps 755 mmHg 86%
    23:00 +27°C° 0.5 mm 6 mps 754 mmHg 86%

    25 November, Sunday

    Time Temperature Precipitation Wind Pressure Humidity
    00:00 +26°C° 0.5 mm 6 mps 754 mmHg 85%
    01:00 +26°C° 0.5 mm 6 mps 753 mmHg 85%
    02:00 +26°C° 0.6 mm 6 mps 753 mmHg 86%
    03:00 +26°C° 0.6 mm 5 mps 753 mmHg 87%
    04:00 +26°C° 0.6 mm 5 mps 753 mmHg 88%
    05:00 +26°C° 1 mm 4 mps 753 mmHg 89%
    06:00 +26°C° 1 mm 4 mps 754 mmHg 90%
    07:00 +26°C° 1 mm 4 mps 755 mmHg 91%
    08:00 +26°C° 0.6 mm 4 mps 755 mmHg 90%
    09:00 +26°C° 0.6 mm 4 mps 756 mmHg 89%
    10:00 +27°C° 0.6 mm 4 mps 756 mmHg 87%
    11:00 +28°C° 0.1 mm 4 mps 755 mmHg 82%
    12:00 +30°C° 0.1 mm 4 mps 755 mmHg 76%
    13:00 +32°C° 0.1 mm 4 mps 754 mmHg 70%
    14:00 +30°C° 0.5 mm 4 mps 754 mmHg 74%
    15:00 +29°C° 0.5 mm 4 mps 754 mmHg 78%
    16:00 +28°C° 0.5 mm 3 mps 754 mmHg 82%
    17:00 +28°C° 0.2 mm 3 mps 754 mmHg 85%
    18:00 +27°C° 0.2 mm 2 mps 755 mmHg 87%
    19:00 +26°C° 0.2 mm 2 mps 756 mmHg 90%
    20:00 +26°C° 0 mm 1 mps 756 mmHg 90%
    21:00 +26°C° 0 mm 1 mps 756 mmHg 89%
    22:00 +26°C° 0 mm 1 mps 757 mmHg 89%
    23:00 +26°C° 0 mm 1 mps 757 mmHg 89%

    26 November, Monday

    Time Temperature Precipitation Wind Pressure Humidity
    00:00 +26°C° 0 mm 1 mps 756 mmHg 90%
    01:00 +25°C° 0 mm 1 mps 756 mmHg 90%
    02:00 +25°C° 0 mm 1 mps 756 mmHg 90%
    03:00 +25°C° 0 mm 1 mps 756 mmHg 90%
    04:00 +25°C° 0 mm 1 mps 756 mmHg 90%
    05:00 +25°C° 0 mm 1 mps 756 mmHg 89%
    06:00 +26°C° 0 mm 1 mps 757 mmHg 87%
    07:00 +26°C° 0 mm 1 mps 757 mmHg 86%
    08:00 +27°C° 0 mm 1 mps 757 mmHg 79%
    09:00 +29°C° 0 mm 2 mps 758 mmHg 73%
    10:00 +30°C° 0 mm 2 mps 758 mmHg 66%
    11:00 +31°C° 0 mm 2 mps 757 mmHg 63%
    12:00 +32°C° 0 mm 2 mps 756 mmHg 60%
    13:00 +33°C° 0 mm 1 mps 756 mmHg 57%
    14:00 +33°C° 0.2 mm 1 mps 755 mmHg 60%
    15:00 +32°C° 0.2 mm 1 mps 755 mmHg 63%
    16:00 +32°C° 0.2 mm 1 mps 755 mmHg 66%
    17:00 +30°C° 0.5 mm 1 mps 756 mmHg 71%
    18:00 +29°C° 0.5 mm 1 mps 756 mmHg 77%
    19:00 +28°C° 0.5 mm 1 mps 757 mmHg 83%
    20:00 +28°C° 0.9 mm 1 mps 758 mmHg 85%
    21:00 +27°C° 0.9 mm 1 mps 758 mmHg 86%
    22:00 +27°C° 0.9 mm 1 mps 758 mmHg 88%
    23:00 +27°C° 0.1 mm 1 mps 758 mmHg 89%
    Show more